Gressoney, Italy 16 day weather forecast

Slopes altitude range -1 m - -1m

Number of lifts: -1 Pistes: -1km

In some cases the lift and piste totals shown are for the ski domain (e.g. Three Valleys) rather than individual resort (e.g. Courchevel)

Overview

The 16 day weather forecast is fully updated 4 times every day.

    • Mon 22 APR 2019
    • Mon 22
    • 13C 19C
    • Tue 23 APR 2019
    • Tue 23
    • 11C 13C
    • Wed 24 APR 2019
    • Wed 24
    • 10C 12C
    • Thu 25 APR 2019
    • Thu 25
    • 11C 17C
    • Fri 26 APR 2019
    • Fri 26
    • 10C 18C
    • Sat 27 APR 2019
    • Sat 27
    • 11C 19C
    • Sun 28 APR 2019
    • Sun 28
    • 14C 21C
    • Mon 29 APR 2019
    • Mon 29
    • 14C 20C
    • Tue 30 APR 2019
    • Tue 30
    • 0C 1C
    • Wed 01 MAY 2019
    • Wed 01
    • -4C 0C
    • Thu 02 MAY 2019
    • Thu 02
    • -2C 3C
    • Fri 03 MAY 2019
    • Fri 03
    • 0C 3C
    • Sat 04 MAY 2019
    • Sat 04
    • -1C 5C
    • Sun 05 MAY 2019
    • Sun 05
    • 2C 4C
    • Mon 06 MAY 2019
    • Mon 06
    • 0C 6C
    • Tue 07 MAY 2019
    • Tue 07
    • -2C 3C

Date:

Time Type 0°C level Temp Chill Snow Cloud Speed Gust Dir Press
3:00 2322m 11°C 11_4 0cm 100% 4mph 5mph 1015mB
6:00 2224m 11°C 11_3 0cm 93% 3mph 3mph 1014mB
9:00 2300m 13°C 13_4 0cm 73% 4mph 4mph 1011mB
12:00 2496m 19°C 19_6 0cm 42% 6mph 6mph 1008mB
15:00 2399m 19°C 19_6 0cm 7% 6mph 7mph 1006mB
18:00 2176m 19°C 19_6 0cm 45% 6mph 12mph 1006mB
21:00 2085m 11°C 11_2 0cm 99% 2mph 9mph 1007mB
0:00 2017m 10°C 10_4 0cm 99% 4mph 6mph 1006mB
3:00 2164m 10°C 10_5 0cm 100% 5mph 8mph 1004mB
6:00 2132m 10°C 10_4 0cm 100% 4mph 5mph 1003mB
9:00 2173m 11°C 11_2 0cm 96% 2mph 3mph 1002mB
12:00 2155m 13°C 13_2 0cm 98% 2mph 2mph 1002mB
15:00 2431m 13°C 13_3 0cm 100% 3mph 5mph 1002mB
18:00 2270m 13°C 13_1 0cm 98% 1mph 1mph 1003mB
21:00 2339m 10°C 10_3 0cm 97% 3mph 4mph 1006mB
0:00 2402m 10°C 10_2 0cm 92% 2mph 3mph 1008mB
3:00 2375m 9°C 9_1 0cm 69% 1mph 2mph 1008mB
6:00 2208m 9°C 9_2 0cm 79% 2mph 3mph 1009mB
9:00 2328m 10°C 10_4 0cm 99% 4mph 8mph 1010mB
12:00 2425m 12°C 12_7 0cm 99% 7mph 17mph 1011mB
15:00 2224m 12°C 12_8 0cm 100% 8mph 19mph 1012mB
18:00 2305m 12°C 12_3 0cm 91% 3mph 4mph 1013mB
21:00 2518m 9°C 9_4 0cm 72% 4mph 6mph 1017mB
0:00 2496m 8°C 8_4 0cm 59% 4mph 6mph 1018mB
3:00 2207m 8°C 8_4 0cm 34% 4mph 5mph 1018mB
6:00 2007m 8°C 8_4 0cm 25% 4mph 7mph 1018mB
9:00 2020m 11°C 11_4 0cm 16% 4mph 5mph 1017mB
12:00 2204m 17°C 17_4 0cm 47% 4mph 5mph 1017mB
15:00 2368m 18°C 18_3 0cm 84% 3mph 3mph 1016mB
18:00 2334m 18°C 18_0 0cm 88% 0mph 1mph 1016mB
21:00 2276m 11°C 11_5 0cm 45% 5mph 6mph 1017mB
0:00 2404m 10°C 10_5 0cm 37% 5mph 7mph 1017mB
3:00 2288m 10°C 10_3 0cm 32% 3mph 4mph 1016mB
6:00 2162m 9°C 9_5 0cm 33% 5mph 9mph 1016mB
9:00 2028m 10°C 10_2 0cm 93% 2mph 4mph 1017mB
12:00 2150m 18°C 18_6 0cm 68% 6mph 8mph 1016mB
15:00 2149m 18°C 18_4 0cm 1% 4mph 7mph 1016mB
18:00 2183m 18°C 18_2 0cm 1% 2mph 3mph 1018mB
21:00 2230m 10°C 10_7 0cm 2% 7mph 11mph 1022mB
0:00 2260m 9°C 9_8 0cm 1% 8mph 15mph 1023mB
3:00 2208m 9°C 9_8 0cm 38% 8mph 11mph 1025mB
6:00 2260m 8°C 8_5 0cm 19% 5mph 8mph 1026mB
9:00 2384m 11°C 11_5 0cm 7% 5mph 3mph 1025mB
12:00 2491m 19°C 19_6 0cm 3% 6mph 5mph 1023mB
15:00 2604m 20°C 20_6 0cm 0% 6mph 6mph 1023mB
18:00 2772m 20°C 20_3 0cm 7% 3mph 4mph 1024mB
21:00 2910m 13°C 13_6 0cm 38% 6mph 7mph 1027mB
0:00 2909m 12°C 12_6 0cm 55% 6mph 7mph 1027mB
3:00 2849m 11°C 11_4 0cm 65% 4mph 5mph 1026mB
6:00 2891m 11°C 11_2 0cm 63% 2mph 3mph 1026mB
9:00 2955m 14°C 14_5 0cm 41% 5mph 3mph 1024mB
12:00 2980m 21°C 21_7 0cm 35% 7mph 5mph 1022mB
15:00 3005m 21°C 21_6 0cm 5% 6mph 5mph 1021mB
18:00 3030m 21°C 21_4 0cm 3% 4mph 5mph 1021mB
21:00 2974m 14°C 14_4 0cm 3% 4mph 5mph 1022mB
0:00 2963m 12°C 12_4 0cm 11% 4mph 5mph 1021mB
3:00 3019m 11°C 11_4 0cm 26% 4mph 5mph 1020mB
6:00 3044m 11°C 11_2 0cm 42% 2mph 3mph 1018mB
9:00 3024m 14°C 14_5 0cm 74% 5mph 4mph 1016mB
12:00 2962m 20°C 20_6 0cm 86% 6mph 5mph 1013mB
15:00 3027m 5°C 5_3 1cm 78% 3mph 4mph 1010mB
18:00 2911m 5°C 5_4 1cm 66% 4mph 5mph 1010mB
21:00 2441m 0°C 0_8 1cm 52% 8mph 9mph 1010mB
0:00 2383m -1°C -1_9 1cm 50% 9mph 9mph 1009mB
3:00 2426m 0°C 0_8 1cm 81% 8mph 8mph 1008mB
6:00 2371m -1°C -1_8 1cm 73% 8mph 9mph 1008mB
9:00 2345m 0°C 0_9 1cm 82% 9mph 10mph 1008mB
12:00 2350m 1°C 1_9 1cm 66% 9mph 11mph 1007mB
15:00 2349m 1°C 1_9 0cm 9% 9mph 11mph 1007mB
18:00 1921m 1°C 1_9 0cm 6% 9mph 10mph 1009mB
21:00 1372m -6°C -6_10 0cm 7% 10mph 11mph 1012mB
0:00 1202m -7°C -7_9 0cm 7% 9mph 9mph 1013mB
3:00 1110m -8°C -8_8 0cm 0% 8mph 8mph 1014mB
6:00 1637m -8°C -8_6 0cm 0% 6mph 6mph 1014mB
9:00 2090m -4°C -4_1 0cm 0% 1mph 2mph 1013mB
12:00 2239m 0°C 0_1 1cm 28% 1mph 2mph 1011mB
15:00 2296m 1°C 1_3 1cm 97% 3mph 4mph 1010mB
18:00 1920m 1°C 1_3 2cm 66% 3mph 4mph 1011mB
21:00 1399m -6°C -6_6 0cm 11% 6mph 7mph 1013mB
0:00 1551m -6°C -6_5 0cm 50% 5mph 5mph 1012mB
Afternoon 0.411458mm 1.375 2093m 3°C 3_1 11cm 99% 1mph 3mph 1009mB
Morning 0.338542mm 2.5 2244m 0°C 0_5 0cm 72% 5mph 8mph 1011mB
Afternoon 0.09375mm 0.1875 2234m 3°C 3_8 0cm 93% 8mph 10mph 1008mB
Morning 0.078125mm 0.125 2067m -1°C -1_5 1cm 96% 5mph 9mph 1008mB
Afternoon 0.125mm 0.0625 2346m 5°C 5_9 0cm 97% 9mph 11mph 1003mB
Morning 0.984375mm 0.0625 2584m 2°C 2_7 0cm 100% 7mph 12mph 1004mB
Afternoon 1.5625mm 0.25 2575m 4°C 4_8 0cm 100% 8mph 14mph 1000mB
Morning 1.90625mm 1 2231m 1°C 1_5 0cm 100% 5mph 7mph 1002mB
Afternoon 0.40625mm 0.125 2405m 6°C 6_6 0cm 100% 6mph 7mph 1004mB
Morning 0.135417mm 1.25 1828m -1°C -1_11 10cm 92% 11mph 18mph 1011mB
Afternoon 0.114583mm 0.0625 1983m 3°C 3_10 1cm 97% 10mph 11mph 1014mB
Morning 0.0677083mm 0.1875 1277m -4°C -4_9 0cm 73% 9mph 15mph 1022mB

16 day outlook at a glance

Forecast issued: 22/04/2019 08:25:18

Chat

Your comments and questions. In a resort? Let us know what it's like!


Characters left 250

For terms and conditions see Readers Comments on the Cookie and privacy policy page.